LiveATC.Net - Listen to live air traffic control over the Internet!


ICAO: EPRZ  IATA: RZE   Airport: Rzeszow-Jasionka Airport
City: Jasionka
Country: Poland   Continent: Europe
EPRZ METAR Weather: EPRZ 210500Z 27019KT 9999 BKN026 M03/M07 Q1013
EPRZ Flight Activity (FlightAware)
EPRZ Webcam:  (Airport Webcams) 

EPRZ Del/Twr/EPWW Radar
Feed Status: UP   Listeners: 4
Listen in your browser - HTML5 player (in browser, HTML5)
Click here to listen with your own player (launches your MP3 player)
Archive Access: EPRZ Del/Twr/EPWW Radar
FacilityFrequency
EPWW Radar120.950
EPWW Radar134.175
Rzeszow Delivery121.800
Rzeszow Tower126.800

NOTICE

Unauthorized use prohibited. See LiveATC.net Terms of Service


Airport/ARTCC Code
Frequency Search
(e.g., 124.400, 128.75)
Site-wide search
 


Browse Feeds
Top 50 Feeds
HF Oceanic Feeds
Coverage Map
Bad Weather Areas

LiveATC FAQ
Offer LiveATC feed
Contact LiveATC.net
Press Inquiries

LiveATC on iPhone
LiveATC on Android

LiveATC Mobile
(Mobile browser)

ATC Audio Archives
Interesting Recordings

LiveATC Forums


Home Page
About LiveATC.net
Make a Donation
Terms of Use
Privacy Policy

Canadian Air Freqs

AIRMETs/SIGMETs

FAA Airport Status
NAS Status
Arrival Demand


Server Software By:
Icecast.org
Liquidsoap